EW9394 Weather Reports


time (UTC)temp
F
wind
direction
speed
knots
gust
knots
rain 1hr
in
rain 24hr
in
rain mn
in
humidity
%
barometer
mb
20260510114939 64 158 0.0 0.0 0.00 0.16 0.16 99 1015.8
20260510114436 64 170 0.0 0.0 0.00 0.16 0.16 99 1015.6
20260510113932 64 166 0.0 0.0 0.00 0.16 0.16 99 1015.7
20260510113427 64 171 0.0 0.0 0.00 0.16 0.16 99 1015.9
20260510112925 64 170 0.9 0.9 0.00 0.16 0.16 99 1015.7
20260510112422 64 181 0.0 0.0 0.00 0.16 0.16 99 1015.5
20260510111912 64 181 0.0 0.0 0.00 0.16 0.16 99 1015.4
20260510111408 64 177 0.0 0.0 0.00 0.16 0.16 99 1015.4
20260510110903 64 164 0.9 0.9 0.00 0.16 0.16 99 1015.5
20260510110400 64 184 0.0 0.0 0.00 0.16 0.16 99 1015.3
20260510105857 64 158 1.7 1.7 0.00 0.16 0.16 99 1015.4
20260510105351 64 167 0.0 0.0 0.00 0.16 0.16 99 1015.1
20260510104847 64 168 0.0 0.0 0.00 0.16 0.16 98 1015.2
20260510104344 64 187 0.0 0.0 0.00 0.16 0.16 98 1015.3
20260510103840 64 181 0.0 0.0 0.00 0.16 0.16 98 1015.2
20260510103338 64 177 0.9 0.9 0.00 0.16 0.16 98 1015.0
20260510102833 64 165 2.6 2.6 0.00 0.16 0.16 98 1015.1
20260510102329 64 135 0.0 0.0 0.00 0.16 0.16 98 1015.5
20260510101826 64 93 0.0 0.9 0.00 0.16 0.16 97 1015.4
20260510101324 64 83 0.9 0.9 0.00 0.16 0.16 97 1015.2
20260510100820 64 64 0.9 0.9 0.07 0.16 0.16 96 1014.9
20260510100318 65 65 0.9 1.7 0.26 0.16 0.16 96 1015.1
20260510095814 65 64 1.7 1.7 0.31 0.15 0.15 95 1015.3
20260510095309 66 65 1.7 2.6 0.42 0.13 0.13 94 1014.9
20260510094809 66 60 2.6 2.6 0.52 0.10 0.10 93 1015.2
20260510094304 68 61 2.6 5.2 0.35 0.06 0.06 88 1016.4
20260510093800 70 295 0.0 0.0 0.07 0.01 0.01 83 1017.4
20260510093257 70 347 2.6 4.3 0.00 0.00 0.00 81 1016.7
20260510092753 70 307 2.6 5.2 0.00 0.00 0.00 80 1016.2
20260510092249 71 255 5.2 8.7 0.00 0.00 0.00 81 1015.8
20260510091745 71 129 1.7 2.6 0.00 0.00 0.00 84 1015.4
20260510091242 72 341 2.6 6.1 0.00 0.00 0.00 90 1015.0
20260510090738 74 76 0.9 0.9 0.00 0.00 0.00 94 1014.6
20260510090236 74 99 0.0 0.9 0.00 0.00 0.00 94 1014.7
20260510085731 74 56 1.7 1.7 0.00 0.00 0.00 94 1014.3
20260510085226 74 351 0.9 0.9 0.00 0.00 0.00 93 1014.0
20260510084722 74 125 0.0 0.9 0.00 0.00 0.00 93 1013.5
20260510084219 74 67 0.9 0.9 0.00 0.00 0.00 93 1013.5
20260510083715 74 112 0.0 0.0 0.00 0.00 0.00 93 1013.5
20260510083213 74 108 0.9 0.9 0.00 0.00 0.00 93 1013.6
20260510082708 74 260 0.0 0.0 0.00 0.00 0.00 93 1013.7
20260510082205 74 294 0.9 1.7 0.00 0.00 0.00 93 1013.8
20260510081659 74 287 0.9 0.9 0.00 0.00 0.00 92 1013.7
20260510081155 74 286 0.9 1.7 0.00 0.00 0.00 92 1013.2
20260510080654 74 237 0.0 0.9 0.00 0.00 0.00 92 1013.1
20260510080152 74 194 0.0 0.0 0.00 0.00 0.00 91 1012.8
20260510075648 74 185 0.0 0.0 0.00 0.00 0.00 91 1012.6
20260510075146 74 185 0.0 0.0 0.00 0.00 0.00 90 1012.4
20260510074643 74 189 0.0 0.0 0.00 0.00 0.00 90 1012.2
20260510074138 74 190 0.0 0.0 0.00 0.00 0.00 90 1012.2
20260510073635 75 192 0.0 0.0 0.00 0.00 0.00 89 1012.1
20260510073132 75 191 0.0 0.0 0.00 0.00 0.00 89 1012.1
20260510072628 75 166 1.7 1.7 0.00 0.00 0.00 88 1011.7
20260510072124 76 160 0.9 1.7 0.00 0.00 0.00 87 1012.0
20260510071620 75 133 0.9 0.9 0.00 0.00 0.00 88 1012.0
20260510071118 75 112 0.0 0.0 0.00 0.00 0.00 88 1012.2
20260510070615 76 64 0.0 0.9 0.00 0.00 0.00 87 1012.6
20260510070113 76 8 0.0 0.0 0.00 0.00 0.00 86 1012.9
20260510065608 76 267 0.9 0.9 0.00 0.00 0.00 86 1013.1
20260510065105 76 273 0.9 1.7 0.00 0.00 0.00 85 1013.3
20260510064601 76 329 0.9 1.7 0.00 0.00 0.00 85 1013.3
20260510064058 76 291 0.9 0.9 0.00 0.00 0.00 85 1013.5
20260510063555 76 250 0.9 0.9 0.00 0.00 0.00 85 1013.4
20260510063052 76 250 0.0 0.9 0.00 0.00 0.00 85 1013.3
20260510062548 76 279 0.0 0.0 0.00 0.00 0.00 85 1013.1
20260510062043 76 352 1.7 1.7 0.00 0.00 0.00 85 1013.5
20260510061540 76 313 0.9 1.7 0.00 0.00 0.00 85 1013.2
20260510061037 75 153 0.9 0.9 0.00 0.00 0.00 85 1012.5
20260510060533 75 191 0.0 0.9 0.00 0.00 0.00 85 1012.0
20260510060029 75 143 0.9 0.9 0.00 0.00 0.00 85 1011.6
20260510055525 75 118 0.9 1.7 0.00 0.00 0.00 86 1011.3
20260510055024 76 151 0.9 0.9 0.00 0.00 0.00 85 1011.4
20260510054519 75 161 0.9 0.9 0.00 0.00 0.00 86 1011.4
20260510054014 75 103 2.6 2.6 0.00 0.00 0.00 86 1011.1
20260510053509 76 177 0.9 0.9 0.00 0.00 0.00 86 1011.2
20260510053006 76 169 0.9 0.9 0.00 0.00 0.00 85 1011.0
20260510052502 75 170 0.9 1.7 0.00 0.00 0.00 86 1010.8
20260510051958 76 119 2.6 2.6 0.00 0.00 0.00 85 1011.0
20260510051454 76 155 0.9 1.7 0.00 0.00 0.00 84 1011.2
20260510050951 76 153 1.7 2.6 0.00 0.00 0.00 84 1010.9
20260510050448 76 142 2.6 2.6 0.00 0.00 0.00 84 1011.0
20260510045945 76 131 0.9 1.7 0.00 0.00 0.00 84 1010.9
20260510045442 76 161 0.9 1.7 0.00 0.00 0.00 83 1010.7
20260510044939 76 137 1.7 2.6 0.00 0.00 0.00 82 1010.7
20260510044436 76 143 1.7 1.7 0.00 0.00 0.00 81 1010.6
20260510043932 77 106 1.7 2.6 0.00 0.00 0.00 80 1010.5
20260510043428 77 128 2.6 2.6 0.00 0.00 0.00 78 1010.6
20260510042927 77 140 1.7 1.7 0.00 0.00 0.00 77 1010.4
20260510042422 77 137 2.6 4.3 0.00 0.00 0.00 76 1010.5
20260510041918 77 156 1.7 1.7 0.00 0.00 0.00 74 1010.6
20260510041416 77 144 0.9 0.9 0.00 0.00 0.00 74 1010.8
20260510040913 77 154 0.0 0.0 0.00 0.00 0.00 74 1010.8
20260510040410 77 154 0.9 1.7 0.00 0.00 0.00 74 1010.8
20260510035905 77 165 0.9 0.9 0.00 0.00 0.00 73 1010.8
20260510035402 77 161 0.9 1.7 0.00 0.00 0.00 73 1011.0
20260510034856 78 161 0.9 0.9 0.00 0.00 0.00 72 1010.9
20260510034356 78 142 0.9 1.7 0.00 0.00 0.00 71 1010.8
20260510033851 77 168 0.0 0.0 0.00 0.00 0.00 72 1010.8
20260510033348 78 166 0.9 0.9 0.00 0.00 0.00 71 1010.6
20260510032844 78 164 0.9 0.9 0.00 0.00 0.00 71 1010.7
20260510032341 78 158 0.9 0.9 0.00 0.00 0.00 70 1010.8
20260510031837 78 163 0.0 0.9 0.00 0.00 0.00 70 1010.8
20260510031332 78 158 0.9 1.7 0.00 0.00 0.00 71 1010.8
20260510030832 78 167 0.0 0.0 0.00 0.00 0.00 71 1010.7
20260510030329 78 172 0.0 0.0 0.00 0.00 0.00 71 1010.8
20260510025826 78 150 0.0 0.0 0.00 0.00 0.00 71 1010.8
20260510025324 78 150 0.0 0.0 0.00 0.00 0.00 70 1010.8
20260510024820 78 151 0.0 0.0 0.00 0.00 0.00 70 1010.9
20260510024318 79 145 0.0 0.0 0.00 0.00 0.00 70 1010.8
20260510023814 79 146 0.0 0.0 0.00 0.00 0.00 69 1010.8
20260510023310 79 129 0.9 0.9 0.00 0.00 0.00 68 1010.8
20260510022807 79 126 0.0 0.9 0.00 0.00 0.00 68 1010.6
20260510022307 79 141 0.0 0.9 0.00 0.00 0.00 68 1010.3
20260510021806 80 141 0.0 0.9 0.00 0.00 0.00 67 1010.5
20260510021304 80 117 0.0 0.0 0.00 0.00 0.00 66 1010.6
20260510020800 80 114 0.9 0.9 0.00 0.00 0.00 66 1010.2
20260510020300 80 135 0.9 0.9 0.00 0.00 0.00 66 1010.4
20260510015756 80 137 0.0 0.9 0.00 0.00 0.00 65 1010.2
20260510015252 81 127 0.0 0.9 0.00 0.00 0.00 64 1010.3
20260510014747 81 104 0.9 0.9 0.00 0.00 0.00 63 1010.2
20260510014245 81 125 0.9 0.9 0.00 0.00 0.00 63 1010.4
20260510013741 81 103 0.9 0.9 0.00 0.00 0.00 62 1010.3
20260510013236 82 115 0.0 0.9 0.00 0.00 0.00 61 1010.0
20260510012731 82 93 0.9 0.9 0.00 0.00 0.00 61 1010.0
20260510012227 82 131 0.0 0.0 0.00 0.00 0.00 61 1009.9
20260510011727 82 148 0.0 0.0 0.00 0.00 0.00 60 1009.7
20260510011222 83 130 0.0 0.9 0.00 0.00 0.00 58 1009.8
20260510010719 83 97 1.7 1.7 0.00 0.00 0.00 58 1009.6
20260510010216 83 90 0.9 0.9 0.00 0.00 0.00 57 1009.7
20260510005713 84 116 0.0 0.0 0.00 0.00 0.00 56 1009.7
20260510005209 84 78 0.9 0.9 0.00 0.00 0.00 55 1009.5
20260510004707 84 99 0.9 0.9 0.00 0.00 0.00 55 1009.5
20260510004204 84 145 0.0 0.9 0.00 0.00 0.00 54 1009.7
20260510003702 85 90 0.9 0.9 0.00 0.00 0.00 53 1009.7
20260510003158 85 75 0.9 0.9 0.00 0.00 0.00 51 1009.5
20260510002657 85 67 0.9 1.7 0.00 0.00 0.00 51 1009.4
20260510002155 85 107 0.0 0.9 0.00 0.00 0.00 50 1009.6
20260510001651 86 117 0.9 0.9 0.00 0.00 0.00 50 1009.5
20260510001150 87 110 0.9 0.9 0.00 0.00 0.00 50 1009.6
20260510000650 86 109 0.9 0.9 0.00 0.00 0.00 51 1009.7
20260510000148 86 140 0.9 1.7 0.00 0.00 0.00 51 1009.6
20260509235644 86 135 0.0 0.9 0.00 0.00 0.00 51 1009.6
20260509235141 87 79 0.9 0.9 0.00 0.00 0.00 50 1009.5
20260509234637 87 146 0.0 0.0 0.00 0.00 0.00 51 1009.4
20260509234135 87 166 0.0 0.9 0.00 0.00 0.00 50 1009.4
20260509233633 87 187 0.0 0.0 0.00 0.00 0.00 51 1009.7
20260509233130 87 158 0.9 1.7 0.00 0.00 0.00 50 1009.7
20260509232626 87 167 0.0 0.9 0.00 0.00 0.00 49 1009.7
20260509232123 87 162 0.0 0.9 0.00 0.00 0.00 51 1009.5
20260509231619 87 165 0.0 0.0 0.00 0.00 0.00 50 1009.6
20260509231117 88 307 3.5 4.3 0.00 0.00 0.00 49 1009.6
20260509230614 88 299 1.7 1.7 0.00 0.00 0.00 50 1009.5
20260509230111 87 156 0.9 0.9 0.00 0.00 0.00 51 1009.6
20260509225607 87 140 0.0 0.9 0.00 0.00 0.00 51 1009.7
20260509225102 88 84 0.0 0.9 0.00 0.00 0.00 51 1009.7
20260509224557 88 88 0.9 0.9 0.00 0.00 0.00 51 1009.4
20260509224055 88 78 0.0 0.9 0.00 0.00 0.00 51 1009.5
20260509223552 87 96 0.9 0.9 0.00 0.00 0.00 52 1009.7
20260509223049 88 169 0.9 1.7 0.00 0.00 0.00 51 1009.6
20260509222545 89 112 3.5 4.3 0.00 0.00 0.00 50 1009.5
20260509222041 88 186 0.0 0.0 0.00 0.00 0.00 53 1009.2
20260509221537 88 125 0.9 0.9 0.00 0.00 0.00 54 1009.5
20260509221033 87 128 1.7 1.7 0.00 0.00 0.00 55 1009.1
20260509220529 89 68 0.9 0.9 0.00 0.00 0.00 53 1009.5
20260509220026 89 156 0.0 0.9 0.00 0.00 0.00 52 1009.5
20260509215521 89 84 0.9 0.9 0.00 0.00 0.00 53 1009.5
20260509215019 88 129 0.9 0.9 0.00 0.00 0.00 54 1009.7
20260509214516 88 113 0.9 0.9 0.00 0.00 0.00 52 1009.5
20260509214013 90 239 0.0 0.9 0.00 0.00 0.00 52 1009.7
20260509213509 89 72 0.9 1.7 0.00 0.00 0.00 53 1009.7
20260509213006 88 78 0.9 0.9 0.00 0.00 0.00 54 1009.9
20260509212503 88 186 0.0 0.9 0.00 0.00 0.00 54 1009.8
20260509211959 89 230 0.0 0.0 0.00 0.00 0.00 54 1009.9
20260509211455 89 140 0.0 0.9 0.00 0.00 0.00 54 1010.0
20260509210952 89 98 1.7 2.6 0.00 0.00 0.00 55 1010.1
20260509210448 89 57 1.7 2.6 0.00 0.00 0.00 54 1010.1
20260509205944 89 88 0.0 0.9 0.00 0.00 0.00 54 1010.1
20260509205439 88 165 0.0 0.0 0.00 0.00 0.00 56 1010.0
20260509204935 88 131 0.9 0.9 0.00 0.00 0.00 56 1010.4
20260509204426 88 133 0.0 0.9 0.00 0.00 0.00 57 1010.3
20260509203923 87 143 0.9 0.9 0.00 0.00 0.00 56 1010.4
20260509203418 88 105 1.7 2.6 0.00 0.00 0.00 58 1010.6
20260509202916 88 105 1.7 1.7 0.00 0.00 0.00 56 1010.4
20260509202412 88 166 1.7 1.7 0.00 0.00 0.00 57 1010.5
20260509201907 88 64 0.9 0.9 0.00 0.00 0.00 59 1010.7
20260509201402 87 85 0.9 1.7 0.00 0.00 0.00 60 1010.9
20260509200900 89 150 0.0 0.9 0.00 0.00 0.00 57 1010.8
20260509200359 88 79 0.9 1.7 0.00 0.00 0.00 58 1010.5
20260509195857 87 88 0.0 0.9 0.00 0.00 0.00 60 1010.6
20260509195356 87 68 0.0 0.9 0.00 0.00 0.00 61 1010.7
20260509194851 89 169 0.9 0.9 0.00 0.00 0.00 58 1010.9
20260509194347 88 90 0.9 1.7 0.00 0.00 0.00 58 1011.0
20260509193844 89 103 0.9 1.7 0.00 0.00 0.00 59 1011.0
20260509193344 88 155 0.0 0.9 0.00 0.00 0.00 60 1011.0
20260509192840 87 247 1.7 1.7 0.00 0.00 0.00 60 1010.8
20260509192336 88 267 1.7 1.7 0.00 0.00 0.00 59 1010.9
20260509191832 88 20 1.7 4.3 0.00 0.00 0.00 61 1011.1
20260509191328 87 210 2.6 4.3 0.00 0.00 0.00 62 1011.1
20260509190824 86 357 2.6 4.3 0.00 0.00 0.00 63 1011.2
20260509190321 86 253 0.9 0.9 0.00 0.00 0.00 65 1011.1
20260509185818 86 83 0.0 0.0 0.00 0.00 0.00 64 1011.2
20260509185314 86 131 0.9 0.9 0.00 0.00 0.00 64 1011.3
20260509184812 87 273 1.7 1.7 0.00 0.00 0.00 63 1011.3
20260509184309 86 248 0.0 0.9 0.00 0.00 0.00 64 1011.3
20260509183806 86 187 0.0 0.9 0.00 0.00 0.00 65 1011.2
20260509183301 86 308 2.6 4.3 0.00 0.00 0.00 64 1011.4
20260509182756 86 182 0.0 0.9 0.00 0.00 0.00 65 1011.3
20260509182254 84 243 0.0 0.0 0.00 0.00 0.00 67 1011.2
20260509181751 86 311 4.3 6.1 0.00 0.00 0.00 63 1011.3
20260509181249 86 6 0.9 1.7 0.00 0.00 0.00 64 1011.6
20260509180746 86 289 0.9 1.7 0.00 0.00 0.00 67 1011.6
20260509180242 84 291 1.7 2.6 0.00 0.00 0.00 67 1011.7
20260509175739 84 217 0.9 1.7 0.00 0.00 0.00 68 1011.8
20260509175235 85 11 3.5 5.2 0.00 0.00 0.00 66 1011.6
20260509174731 85 166 0.0 0.9 0.00 0.00 0.00 66 1011.8
20260509174226 85 21 0.9 1.7 0.00 0.00 0.00 67 1011.7
20260509173723 84 52 0.9 0.9 0.00 0.00 0.00 68 1011.8
20260509173219 84 162 1.7 2.6 0.00 0.00 0.00 67 1011.8
20260509172715 83 44 0.9 1.7 0.00 0.00 0.00 68 1011.8
20260509172211 84 242 0.9 0.9 0.00 0.00 0.00 69 1012.1
20260509171707 83 331 0.9 1.7 0.00 0.00 0.00 68 1011.9
20260509171203 82 55 0.9 1.7 0.00 0.00 0.00 69 1012.2
20260509170700 82 312 2.6 2.6 0.00 0.00 0.00 69 1012.1
20260509170156 83 17 3.5 5.2 0.00 0.00 0.00 69 1012.2
20260509165655 83 258 0.9 0.9 0.00 0.00 0.00 71 1012.0
20260509165150 82 320 2.6 4.3 0.00 0.00 0.00 70 1012.0
20260509164646 81 305 1.7 1.7 0.00 0.00 0.00 71 1012.1
20260509164142 82 256 0.9 1.7 0.00 0.00 0.00 71 1012.2
20260509163640 81 147 0.9 0.9 0.00 0.00 0.00 73 1012.2
20260509163136 80 1 0.9 1.7 0.00 0.00 0.00 74 1012.2
20260509162633 79 259 0.9 0.9 0.00 0.00 0.00 75 1012.1
20260509162129 80 296 2.6 2.6 0.00 0.00 0.00 74 1012.3
20260509161625 79 295 1.7 1.7 0.00 0.00 0.00 75 1012.0
20260509161120 79 270 3.5 4.3 0.00 0.00 0.00 75 1012.0
20260509160617 79 285 1.7 2.6 0.00 0.00 0.00 76 1012.3
20260509160112 79 245 0.0 0.9 0.00 0.00 0.00 76 1012.3
20260509155608 79 335 0.9 0.9 0.00 0.00 0.00 77 1012.0
20260509155105 78 352 3.5 5.2 0.00 0.00 0.00 77 1012.1
20260509154600 78 13 3.5 4.3 0.00 0.00 0.00 77 1012.1
20260509154058 78 284 1.7 2.6 0.00 0.00 0.00 78 1012.0
20260509153555 77 17 3.5 5.2 0.00 0.00 0.00 79 1012.0
20260509153052 77 334 1.7 2.6 0.00 0.00 0.00 79 1012.0
20260509152548 77 270 2.6 4.3 0.00 0.00 0.00 78 1012.0
20260509152045 77 272 0.9 0.9 0.00 0.00 0.00 79 1011.8
20260509151541 77 280 2.6 4.3 0.00 0.00 0.00 80 1012.0
20260509151039 77 64 1.7 2.6 0.00 0.00 0.00 80 1012.0
20260509150536 76 131 0.9 0.9 0.00 0.00 0.00 81 1012.0
20260509150035 77 302 1.7 2.6 0.00 0.00 0.00 79 1012.2
20260509145530 77 304 2.6 4.3 0.00 0.00 0.00 80 1012.1
20260509145025 76 286 2.6 4.3 0.00 0.00 0.00 81 1012.0
20260509144523 76 329 2.6 2.6 0.00 0.00 0.00 82 1012.3
20260509144020 75 278 2.6 2.6 0.00 0.00 0.00 84 1012.4
20260509143517 75 261 1.7 1.7 0.00 0.00 0.00 85 1012.0
20260509143015 74 335 3.5 4.3 0.00 0.00 0.00 85 1012.2
20260509142510 75 285 2.6 2.6 0.00 0.00 0.00 85 1011.9
20260509142005 74 259 0.9 0.9 0.00 0.00 0.00 86 1011.9
20260509141502 74 254 0.0 0.0 0.00 0.00 0.00 86 1012.0
20260509140959 74 291 2.6 2.6 0.00 0.00 0.00 86 1011.9
20260509140455 73 228 0.9 0.9 0.00 0.00 0.00 88 1011.8
20260509135954 73 290 3.5 5.2 0.00 0.00 0.00 89 1011.8
20260509135451 72 322 1.7 2.6 0.00 0.00 0.00 89 1011.7
20260509134948 72 285 1.7 1.7 0.00 0.00 0.00 90 1011.8
20260509134445 72 300 0.9 1.7 0.00 0.00 0.00 90 1011.8
20260509133943 72 336 4.3 6.1 0.00 0.00 0.00 91 1011.7
20260509133439 71 274 2.6 2.6 0.00 0.00 0.00 92 1011.6
20260509132937 71 326 2.6 2.6 0.00 0.00 0.00 93 1011.6
20260509132435 71 285 0.9 1.7 0.00 0.00 0.00 93 1011.4
20260509131932 71 282 2.6 5.2 0.00 0.00 0.00 94 1011.5
20260509131429 71 273 4.3 5.2 0.00 0.00 0.00 95 1011.4
20260509130926 70 301 2.6 2.6 0.00 0.00 0.00 95 1011.6
20260509130421 70 318 0.9 1.7 0.00 0.00 0.00 96 1011.6
20260509125918 70 249 0.9 1.7 0.00 0.00 0.00 96 1011.5
20260509125415 69 284 0.9 0.9 0.00 0.00 0.00 97 1011.4
20260509124911 69 272 2.6 2.6 0.00 0.00 0.00 97 1011.5
20260509124408 69 294 0.9 2.6 0.00 0.00 0.00 98 1011.3
20260509123906 69 250 0.0 0.0 0.00 0.00 0.00 98 1011.6
20260509123403 69 233 0.0 0.0 0.00 0.00 0.00 98 1011.3
20260509122858 69 188 0.0 0.0 0.00 0.00 0.00 98 1011.4
20260509122355 68 188 0.0 0.0 0.00 0.00 0.00 98 1011.5
20260509121852 68 187 0.0 0.0 0.00 0.00 0.00 98 1011.6
20260509121349 68 187 0.0 0.0 0.00 0.00 0.00 97 1011.3
20260509120848 68 187 0.0 0.0 0.00 0.00 0.00 97 1011.5
20260509120345 68 187 0.0 0.0 0.00 0.00 0.00 97 1011.5
20260509115843 68 187 0.0 0.0 0.00 0.00 0.00 97 1011.5
20260509115340 68 187 0.0 0.0 0.00 0.00 0.00 97 1011.6